User: anonymous   Login
Location: Fort Wayne
(41.1310°N, 85.1290°W)
Time: 11:36:27
(UTC-04:00)
Language:

Helios 1B - Orbit

View from above orbital plane
View from above orbital plane
View from above satellite
View from above satellite

Ground track
Ground track

The orbit data is extracted from the following two-line orbital elements,

1 25977U 99064A   15183.81510183  .00000453  00000-0  64746-4 0  9996
2 25977 098.1417 272.4886 0002620 087.6338 272.5174 14.81536800838052
Epoch (UTC): 02 July 2015 19:33:44
Eccentricity: 0.0002620
inclination: 98.1417°
perigee height: 622 km
apogee height: 626 km
right ascension of ascending node: 272.4886°
argument of perigee: 87.6338°
revolutions per day: 14.81536800
mean anomaly at epoch: 272.5174°
orbit number at epoch: 83805

The dashed part of the orbit path shows where the satellite is in the earth's shadow,  

DLR